Location: Namasale
(1.5000°N, 32.6167°E)
Time: 17:08:40
(UTC+00:00)

Vanguard 1 Rocket - Pass Details

Date: 26 April 2021
Orbit: 651 x 4225 km, 34.3° (Epoch: 17 May)

Event Time Altitude Azimuth Distance (km) Brightness Sun altitude
Rises 15:21:35 0° 338° (NNW) 3,022 10.6 6.6°
Reaches altitude 10° 15:24:26 10° 360° (N) 2,276 9.7 5.9°
Maximum altitude 15:27:52 17° 43° (NE) 2,096 9.0 5.1°
Drops below altitude 10° 15:32:19 10° 83° (E) 3,084 9.6 4.0°
Sets 15:37:09 0° 100° (E) 4,681 10.3 2.8°
